Time,TemperatureF,DewpointF,PressureIn,WindDirection,WindDirectionDegrees,WindSpeedMPH,WindSpeedGustMPH,Humidity,HourlyPrecipIn,Conditions,Clouds,dailyrainin,SoftwareType,DateUTC
2013-05-08 00:01:00,45.0,44.0,-100.00,WNW,292,3.0,5.0,95,-99.99,,,-99.99,,2013-05-08 07:01:00,
2013-05-08 00:11:00,45.0,44.0,-100.00,ESE,111,2.0,3.0,95,-99.99,,,-99.99,,2013-05-08 07:11:00,
2013-05-08 00:21:00,45.0,44.0,-100.00,ESE,111,2.0,3.0,95,-99.99,,,-99.99,,2013-05-08 07:21:00,
2013-05-08 00:31:00,45.0,44.0,-100.00,ESE,111,2.0,3.0,95,-99.99,,,-99.99,,2013-05-08 07:31:00,
2013-05-08 00:42:00,45.0,44.0,-100.00,East,91,3.0,3.0,95,-99.99,,,-99.99,,2013-05-08 07:42:00,
2013-05-08 00:52:00,45.0,43.0,-100.00,ENE,66,3.0,4.0,93,-99.99,,,-99.99,,2013-05-08 07:52:00,
2013-05-08 01:01:00,44.0,42.0,-100.00,ENE,73,4.0,4.0,91,-99.99,,,-99.99,,2013-05-08 08:01:00,
2013-05-08 01:11:00,44.0,42.0,-100.00,East,92,2.0,4.0,91,-99.99,,,-99.99,,2013-05-08 08:11:00,
2013-05-08 01:21:00,43.0,41.0,-100.00,ESE,110,3.0,3.0,91,-99.99,,,-99.99,,2013-05-08 08:21:00,
2013-05-08 01:31:00,43.0,41.0,-100.00,ESE,110,3.0,3.0,91,-99.99,,,-99.99,,2013-05-08 08:31:00,
2013-05-08 01:42:00,43.0,40.0,-100.00,ESE,113,2.0,3.0,88,-99.99,,,-99.99,,2013-05-08 08:42:00,
2013-05-08 01:51:00,43.0,40.0,-100.00,ESE,113,3.0,4.0,89,-99.99,,,-99.99,,2013-05-08 08:51:00,
2013-05-08 02:02:00,43.0,39.0,-100.00,ESE,108,4.0,4.0,87,-99.99,,,-99.99,,2013-05-08 09:02:00,
2013-05-08 02:11:00,43.0,39.0,-100.00,ESE,108,4.0,4.0,87,-99.99,,,-99.99,,2013-05-08 09:11:00,
2013-05-08 02:21:00,43.0,38.0,-100.00,East,101,3.0,4.0,84,-99.99,,,-99.99,,2013-05-08 09:21:00,
2013-05-08 02:32:00,44.0,39.0,-100.00,East,88,2.0,3.0,81,-99.99,,,-99.99,,2013-05-08 09:32:00,
2013-05-08 02:42:00,44.0,39.0,-100.00,WNW,303,2.0,4.0,84,-99.99,,,-99.99,,2013-05-08 09:42:00,
2013-05-08 02:52:00,43.0,40.0,-100.00,WSW,248,1.0,3.0,88,-99.99,,,-99.99,,2013-05-08 09:52:00,
2013-05-08 03:02:00,43.0,40.0,-100.00,ENE,74,3.0,4.0,89,-99.99,,,-99.99,,2013-05-08 10:02:00,
2013-05-08 03:12:00,43.0,40.0,-100.00,ESE,112,2.0,3.0,90,-99.99,,,-99.99,,2013-05-08 10:12:00,
2013-05-08 03:22:00,43.0,40.0,-100.00,ESE,112,2.0,3.0,90,-99.99,,,-99.99,,2013-05-08 10:22:00,
2013-05-08 03:33:00,42.0,40.0,-100.00,SE,140,4.0,6.0,92,-99.99,,,-99.99,,2013-05-08 10:33:00,
2013-05-08 03:42:00,42.0,40.0,-100.00,SE,138,3.0,5.0,93,-99.99,,,-99.99,,2013-05-08 10:42:00,
2013-05-08 03:50:00,43.0,41.0,-100.00,East,100,1.0,2.0,91,-99.99,,,-99.99,,2013-05-08 10:50:00,
2013-05-08 03:52:00,42.0,40.0,-100.00,SE,138,3.0,5.0,93,-99.99,,,-99.99,,2013-05-08 10:52:00,
2013-05-08 04:02:00,42.0,40.0,-100.00,ESE,108,5.0,6.0,92,-99.99,,,-99.99,,2013-05-08 11:02:00,
2013-05-08 04:11:00,42.0,40.0,-100.00,ESE,108,5.0,6.0,92,-99.99,,,-99.99,,2013-05-08 11:11:00,
2013-05-08 04:22:00,43.0,41.0,-100.00,East,100,1.0,2.0,91,-99.99,,,-99.99,,2013-05-08 11:22:00,
2013-05-08 04:32:00,43.0,41.0,-100.00,East,100,1.0,2.0,91,-99.99,,,-99.99,,2013-05-08 11:32:00,
2013-05-08 04:42:00,43.0,41.0,-100.00,East,100,1.0,2.0,91,-99.99,,,-99.99,,2013-05-08 11:42:00,
2013-05-08 04:50:00,43.0,41.0,-100.00,SE,133,2.0,4.0,93,-99.99,,,-99.99,,2013-05-08 11:50:00,
2013-05-08 05:21:00,43.0,41.0,-100.00,SE,133,2.0,4.0,93,-99.99,,,-99.99,,2013-05-08 12:21:00,
2013-05-08 05:31:00,43.0,41.0,-100.00,SE,133,2.0,4.0,93,-99.99,,,-99.99,,2013-05-08 12:31:00,
2013-05-08 05:41:00,43.0,41.0,-100.00,SE,133,2.0,4.0,93,-99.99,,,-99.99,,2013-05-08 12:41:00,
2013-05-08 06:01:00,44.0,41.0,-100.00,NE,54,1.0,2.0,90,-99.99,,,-99.99,,2013-05-08 13:01:00,
2013-05-08 06:11:00,44.0,41.0,-100.00,NE,54,1.0,2.0,90,-99.99,,,-99.99,,2013-05-08 13:11:00,
2013-05-08 06:21:00,44.0,41.0,-100.00,NE,54,1.0,2.0,90,-99.99,,,-99.99,,2013-05-08 13:21:00,
2013-05-08 06:32:00,44.0,41.0,-100.00,North,355,2.0,3.0,89,-99.99,,,-99.99,,2013-05-08 13:32:00,
2013-05-08 06:42:00,44.0,42.0,-100.00,West,274,2.0,3.0,91,-99.99,,,-99.99,,2013-05-08 13:42:00,
2013-05-08 06:52:00,44.0,42.0,-100.00,West,274,2.0,3.0,91,-99.99,,,-99.99,,2013-05-08 13:52:00,
2013-05-08 07:02:00,44.0,42.0,-100.00,West,274,2.0,3.0,91,-99.99,,,-99.99,,2013-05-08 14:02:00,
2013-05-08 07:11:00,45.0,43.0,-100.00,NW,325,3.0,5.0,93,-99.99,,,-99.99,,2013-05-08 14:11:00,
2013-05-08 07:21:00,45.0,43.0,-100.00,NW,325,3.0,5.0,93,-99.99,,,-99.99,,2013-05-08 14:21:00,
2013-05-08 07:31:00,45.0,43.0,-100.00,NW,325,3.0,5.0,93,-99.99,,,-99.99,,2013-05-08 14:31:00,
2013-05-08 07:42:00,45.0,43.0,-100.00,NNW,335,3.0,5.0,93,-99.99,,,-99.99,,2013-05-08 14:42:00,
2013-05-08 07:51:00,45.0,43.0,-100.00,NNW,335,3.0,5.0,93,-99.99,,,-99.99,,2013-05-08 14:51:00,
2013-05-08 08:01:00,45.0,43.0,-100.00,NW,316,5.0,7.0,92,-99.99,,,-99.99,,2013-05-08 15:01:00,
2013-05-08 08:11:00,46.0,44.0,-100.00,NW,309,7.0,10.0,93,-99.99,,,-99.99,,2013-05-08 15:11:00,
2013-05-08 08:21:00,46.0,44.0,-100.00,WNW,291,8.0,13.0,93,-99.99,,,-99.99,,2013-05-08 15:21:00,
2013-05-08 08:32:00,46.0,44.0,-100.00,WNW,291,8.0,13.0,93,-99.99,,,-99.99,,2013-05-08 15:32:00,
2013-05-08 08:42:00,46.0,44.0,-100.00,WNW,291,8.0,13.0,93,-99.99,,,-99.99,,2013-05-08 15:42:00,
2013-05-08 08:52:00,45.0,43.0,-100.00,West,281,6.0,8.0,93,-99.99,,,-99.99,,2013-05-08 15:52:00,
2013-05-08 09:03:00,46.0,44.0,-100.00,NW,304,6.0,8.0,93,-99.99,,,-99.99,,2013-05-08 16:03:00,
2013-05-08 09:12:00,46.0,44.0,-100.00,WNW,300,6.0,8.0,93,-99.99,,,-99.99,,2013-05-08 16:12:00,
2013-05-08 09:23:00,46.0,44.0,-100.00,NW,304,5.0,8.0,94,-99.99,,,-99.99,,2013-05-08 16:23:00,
2013-05-08 09:33:00,46.0,44.0,-100.00,WNW,294,5.0,7.0,94,-99.99,,,-99.99,,2013-05-08 16:33:00,
2013-05-08 09:42:00,46.0,44.0,-100.00,NW,304,5.0,7.0,94,-99.99,,,-99.99,,2013-05-08 16:42:00,
2013-05-08 09:52:00,46.0,45.0,-100.00,WNW,298,6.0,8.0,95,-99.99,,,-99.99,,2013-05-08 16:52:00,
2013-05-08 10:02:00,46.0,45.0,-100.00,WNW,298,6.0,8.0,95,-99.99,,,-99.99,,2013-05-08 17:02:00,
2013-05-08 10:11:00,46.0,45.0,-100.00,WNW,301,6.0,8.0,95,-99.99,,,-99.99,,2013-05-08 17:11:00,
2013-05-08 10:22:00,47.0,46.0,-100.00,NW,309,4.0,7.0,95,-99.99,,,-99.99,,2013-05-08 17:22:00,
2013-05-08 10:31:00,48.0,46.0,-100.00,NW,309,5.0,9.0,92,-99.99,,,-99.99,,2013-05-08 17:31:00,
2013-05-08 10:41:00,48.0,46.0,-100.00,NW,309,5.0,9.0,92,-99.99,,,-99.99,,2013-05-08 17:41:00,
2013-05-08 10:52:00,48.0,44.0,-100.00,WNW,284,8.0,12.0,87,-99.99,,,-99.99,,2013-05-08 17:52:00,
2013-05-08 11:01:00,49.0,44.0,-100.00,WNW,300,8.0,11.0,84,-99.99,,,-99.99,,2013-05-08 18:01:00,
2013-05-08 11:11:00,50.0,44.0,-100.00,WNW,300,9.0,15.0,79,-99.99,,,-99.99,,2013-05-08 18:11:00,
2013-05-08 11:21:00,50.0,44.0,-100.00,WNW,300,9.0,15.0,79,-99.99,,,-99.99,,2013-05-08 18:21:00,
2013-05-08 11:31:00,50.0,43.0,-100.00,NW,304,8.0,13.0,77,-99.99,,,-99.99,,2013-05-08 18:31:00,
2013-05-08 11:42:00,51.0,43.0,-100.00,NW,324,8.0,13.0,74,-99.99,,,-99.99,,2013-05-08 18:42:00,
2013-05-08 11:51:00,52.0,43.0,-100.00,NNW,336,9.0,14.0,72,-99.99,,,-99.99,,2013-05-08 18:51:00,
2013-05-08 12:01:00,52.0,43.0,-100.00,NNW,336,9.0,14.0,72,-99.99,,,-99.99,,2013-05-08 19:01:00,
2013-05-08 12:11:00,52.0,44.0,-100.00,NW,321,9.0,14.0,73,-99.99,,,-99.99,,2013-05-08 19:11:00,
2013-05-08 12:21:00,52.0,44.0,-100.00,NW,321,9.0,14.0,73,-99.99,,,-99.99,,2013-05-08 19:21:00,
2013-05-08 12:32:00,52.0,44.0,-100.00,NW,321,9.0,14.0,73,-99.99,,,-99.99,,2013-05-08 19:32:00,
2013-05-08 12:41:00,52.0,45.0,-100.00,WNW,297,11.0,17.0,76,-99.99,,,-99.99,,2013-05-08 19:41:00,
2013-05-08 12:52:00,52.0,44.0,-100.00,WNW,303,9.0,14.0,75,-99.99,,,-99.99,,2013-05-08 19:52:00,
2013-05-08 13:01:00,54.0,45.0,-100.00,NW,311,9.0,13.0,71,-99.99,,,-99.99,,2013-05-08 20:01:00,
2013-05-08 13:11:00,54.0,44.0,-100.00,NW,324,8.0,18.0,70,-99.99,,,-99.99,,2013-05-08 20:11:00,
2013-05-08 13:22:00,54.0,44.0,-100.00,NW,307,10.0,15.0,70,-99.99,,,-99.99,,2013-05-08 20:22:00,
2013-05-08 13:32:00,55.0,45.0,-100.00,NW,309,10.0,15.0,69,-99.99,,,-99.99,,2013-05-08 20:32:00,
2013-05-08 13:41:00,55.0,45.0,-100.00,NW,309,10.0,15.0,69,-99.99,,,-99.99,,2013-05-08 20:41:00,
2013-05-08 13:51:00,55.0,45.0,-100.00,NW,309,10.0,15.0,69,-99.99,,,-99.99,,2013-05-08 20:51:00,
2013-05-08 14:01:00,54.0,45.0,-100.00,WNW,298,12.0,17.0,71,-99.99,,,-99.99,,2013-05-08 21:01:00,
2013-05-08 14:11:00,54.0,45.0,-100.00,WNW,293,10.0,15.0,72,-99.99,,,-99.99,,2013-05-08 21:11:00,
2013-05-08 14:21:00,54.0,44.0,-100.00,WNW,300,10.0,15.0,70,-99.99,,,-99.99,,2013-05-08 21:21:00,
2013-05-08 14:32:00,55.0,45.0,-100.00,WNW,301,9.0,13.0,69,-99.99,,,-99.99,,2013-05-08 21:32:00,
2013-05-08 14:43:00,55.0,45.0,-100.00,NW,305,9.0,17.0,69,-99.99,,,-99.99,,2013-05-08 21:43:00,
2013-05-08 14:52:00,55.0,45.0,-100.00,NW,305,11.0,16.0,70,-99.99,,,-99.99,,2013-05-08 21:52:00,
2013-05-08 15:02:00,55.0,45.0,-100.00,NW,305,11.0,16.0,70,-99.99,,,-99.99,,2013-05-08 22:02:00,
2013-05-08 15:12:00,55.0,45.0,-100.00,NW,305,11.0,16.0,70,-99.99,,,-99.99,,2013-05-08 22:12:00,
2013-05-08 15:22:00,55.0,46.0,-100.00,WNW,282,8.0,14.0,71,-99.99,,,-99.99,,2013-05-08 22:22:00,
2013-05-08 15:33:00,54.0,46.0,-100.00,WNW,293,9.0,12.0,73,-99.99,,,-99.99,,2013-05-08 22:33:00,
2013-05-08 15:42:00,54.0,46.0,-100.00,WNW,293,9.0,12.0,73,-99.99,,,-99.99,,2013-05-08 22:42:00,
2013-05-08 15:52:00,55.0,47.0,-100.00,WNW,283,8.0,12.0,73,-99.99,,,-99.99,,2013-05-08 22:52:00,
2013-05-08 16:01:00,54.0,47.0,-100.00,WNW,287,10.0,14.0,76,-99.99,,,-99.99,,2013-05-08 23:01:00,
2013-05-08 16:11:00,55.0,48.0,-100.00,WNW,298,10.0,14.0,76,-99.99,,,-99.99,,2013-05-08 23:11:00,
2013-05-08 16:22:00,54.0,47.0,-100.00,NW,305,12.0,15.0,77,-99.99,,,-99.99,,2013-05-08 23:22:00,
2013-05-08 16:32:00,54.0,47.0,-100.00,WNW,293,11.0,15.0,78,-99.99,,,-99.99,,2013-05-08 23:32:00,
2013-05-08 16:42:00,53.0,46.0,-100.00,WNW,285,12.0,16.0,76,-99.99,,,-99.99,,2013-05-08 23:42:00,
2013-05-08 16:52:00,53.0,46.0,-100.00,WNW,284,12.0,16.0,76,-99.99,,,-99.99,,2013-05-08 23:52:00,
2013-05-08 17:01:00,53.0,46.0,-100.00,WNW,283,13.0,16.0,77,-99.99,,,-99.99,,2013-05-09 00:01:00,
2013-05-08 17:11:00,52.0,45.0,-100.00,WNW,284,11.0,15.0,78,-99.99,,,-99.99,,2013-05-09 00:11:00,
2013-05-08 17:21:00,52.0,46.0,-100.00,West,279,11.0,16.0,80,-99.99,,,-99.99,,2013-05-09 00:21:00,
2013-05-08 17:32:00,52.0,46.0,-100.00,WNW,291,10.0,15.0,81,-99.99,,,-99.99,,2013-05-09 00:32:00,
2013-05-08 17:42:00,52.0,46.0,-100.00,WNW,291,10.0,15.0,81,-99.99,,,-99.99,,2013-05-09 00:42:00,
2013-05-08 17:51:00,51.0,45.0,-100.00,NW,305,10.0,14.0,81,-99.99,,,-99.99,,2013-05-09 00:51:00,
2013-05-08 18:01:00,51.0,45.0,-100.00,WNW,303,9.0,14.0,81,-99.99,,,-99.99,,2013-05-09 01:01:00,
2013-05-08 18:11:00,51.0,46.0,-100.00,WNW,303,8.0,11.0,82,-99.99,,,-99.99,,2013-05-09 01:11:00,
2013-05-08 18:22:00,51.0,46.0,-100.00,WNW,293,9.0,12.0,83,-99.99,,,-99.99,,2013-05-09 01:22:00,
2013-05-08 18:32:00,50.0,45.0,-100.00,WNW,302,10.0,12.0,84,-99.99,,,-99.99,,2013-05-09 01:32:00,
2013-05-08 18:42:00,50.0,45.0,-100.00,WNW,301,10.0,13.0,84,-99.99,,,-99.99,,2013-05-09 01:42:00,
2013-05-08 18:50:00,49.0,45.0,-100.00,WNW,300,8.0,11.0,85,-99.99,,,-99.99,,2013-05-09 01:50:00,
2013-05-08 18:52:00,50.0,45.0,-100.00,WNW,297,9.0,12.0,84,-99.99,,,-99.99,,2013-05-09 01:52:00,
2013-05-08 19:02:00,50.0,45.0,-100.00,NW,305,9.0,12.0,84,-99.99,,,-99.99,,2013-05-09 02:02:00,
2013-05-08 19:11:00,50.0,45.0,-100.00,WNW,301,8.0,11.0,84,-99.99,,,-99.99,,2013-05-09 02:11:00,
2013-05-08 19:21:00,49.0,45.0,-100.00,WNW,300,8.0,11.0,85,-99.99,,,-99.99,,2013-05-09 02:21:00,
2013-05-08 19:32:00,49.0,45.0,-100.00,WNW,300,8.0,11.0,85,-99.99,,,-99.99,,2013-05-09 02:32:00,
2013-05-08 19:41:00,49.0,45.0,-100.00,WNW,300,8.0,11.0,85,-99.99,,,-99.99,,2013-05-09 02:41:00,
2013-05-08 20:01:00,49.0,45.0,-100.00,NW,317,7.0,10.0,85,-99.99,,,-99.99,,2013-05-09 03:01:00,
2013-05-08 20:11:00,49.0,45.0,-100.00,NW,309,6.0,10.0,86,-99.99,,,-99.99,,2013-05-09 03:11:00,
2013-05-08 20:21:00,49.0,45.0,-100.00,NW,311,7.0,10.0,87,-99.99,,,-99.99,,2013-05-09 03:21:00,
2013-05-08 20:33:00,49.0,45.0,-100.00,NW,305,7.0,9.0,87,-99.99,,,-99.99,,2013-05-09 03:33:00,
2013-05-08 20:43:00,49.0,45.0,-100.00,WNW,298,5.0,8.0,87,-99.99,,,-99.99,,2013-05-09 03:43:00,
2013-05-08 20:52:00,49.0,45.0,-100.00,WNW,286,5.0,7.0,87,-99.99,,,-99.99,,2013-05-09 03:52:00,
2013-05-08 21:03:00,49.0,45.0,-100.00,WNW,286,5.0,7.0,87,-99.99,,,-99.99,,2013-05-09 04:03:00,
2013-05-08 21:12:00,48.0,44.0,-100.00,WNW,302,6.0,8.0,87,-99.99,,,-99.99,,2013-05-09 04:12:00,
2013-05-08 21:20:00,48.0,44.0,-100.00,NW,315,4.0,5.0,87,-99.99,,,-99.99,,2013-05-09 04:20:00,
2013-05-08 21:23:00,48.0,44.0,-100.00,WNW,302,6.0,8.0,87,-99.99,,,-99.99,,2013-05-09 04:23:00,
2013-05-08 21:32:00,48.0,45.0,-100.00,WNW,303,5.0,8.0,88,-99.99,,,-99.99,,2013-05-09 04:32:00,
2013-05-08 21:42:00,48.0,45.0,-100.00,NW,308,3.0,5.0,88,-99.99,,,-99.99,,2013-05-09 04:42:00,
2013-05-08 21:52:00,48.0,44.0,-100.00,NW,315,4.0,5.0,87,-99.99,,,-99.99,,2013-05-09 04:52:00,
2013-05-08 22:02:00,48.0,44.0,-100.00,NW,315,4.0,5.0,87,-99.99,,,-99.99,,2013-05-09 05:02:00,
2013-05-08 22:11:00,48.0,44.0,-100.00,NW,315,4.0,5.0,87,-99.99,,,-99.99,,2013-05-09 05:11:00,
2013-05-08 22:32:00,48.0,44.0,-100.00,WNW,293,4.0,5.0,87,-99.99,,,-99.99,,2013-05-09 05:32:00,
2013-05-08 22:42:00,48.0,45.0,-100.00,WNW,292,4.0,5.0,88,-99.99,,,-99.99,,2013-05-09 05:42:00,
2013-05-08 22:51:00,47.0,44.0,-100.00,WNW,290,3.0,5.0,88,-99.99,,,-99.99,,2013-05-09 05:51:00,
2013-05-08 23:01:00,47.0,43.0,-100.00,WNW,289,3.0,5.0,87,-99.99,,,-99.99,,2013-05-09 06:01:00,
2013-05-08 23:11:00,47.0,44.0,-100.00,WNW,300,2.0,3.0,88,-99.99,,,-99.99,,2013-05-09 06:11:00,
2013-05-08 23:21:00,47.0,44.0,-100.00,WNW,300,2.0,3.0,88,-99.99,,,-99.99,,2013-05-09 06:21:00,
2013-05-08 23:32:00,47.0,44.0,-100.00,WNW,300,2.0,3.0,88,-99.99,,,-99.99,,2013-05-09 06:32:00,
2013-05-08 23:42:00,47.0,44.0,-100.00,NW,306,3.0,5.0,89,-99.99,,,-99.99,,2013-05-09 06:42:00,
2013-05-08 23:52:00,47.0,44.0,-100.00,WNW,302,4.0,5.0,88,-99.99,,,-99.99,,2013-05-09 06:52:00,